NOAA 16 DEB, 41514

Orbit data source: Space-Track

NOAA 16 DEB, 41514 is space debris in SSO originally from a launch on Thu, 21 Sep 2000 UTC launched from the Air Force Western Test Range (AFWTR). Debris objects in space refer to the collection of defunct objects orbiting the Earth. Examples of debris include non-operational satellites, rocket bodies, and fragments generated from explosions, collisions, or faulty payload assembly.

Loading next visibility...
Identifier
41514, 2000-055MN
Orbit
SSO
Country
Flag of USUS
Related business
Manufacturer
Unknown
Mission
Spacecraft
Bus & Motor
Unknown
Mass
Unknown
Launch date (UTC)
2000-09-21 (26 years ago)
Launch vehicle
Unknown
Launch site
Air Force Western Test Range (AFWTR)
Object type
Payload
Rocket body
Debris
Shape & HBR
Unknown shape, 0.1 m
Radar Cross Section
Medium (>0.1 m² and <1 m²)

Expand to show TLE details & history
Last TLE update: 1 day ago

TLE from 1 day ago
0 NOAA 16 DEB
1 41514U 00055MN  26171.03350643  .00016108  00000-0  22315-2 0  9997
2 41514  98.9016  17.9374 0020136 350.6588   9.4243 14.77949499531282
Epoch: 2026-06-20T00:48Z
TLE epoch observation values (Epoch: 2026-06-20T00:48:14.955Z)
Latitude
0.00004°
Longitude
97.62114°
Altitude
624.856 km
Speed
7.554 km/s
True Right ascension
01h 11m 44s
True Declination
0° 00' 00"
Sunlit
Object was in daylight at epoch
Visualization orbit readout
Latitude
Unknown
Longitude
Unknown
Altitude
Unknown
Speed
Unknown
Apparent Right ascension
Unknown
Apparent Declination
Unknown
Sunlit
N/A
Visualization observer readout
Local Sidereal Time
15:57:13
Azimuth
Unknown
Elevation
Unknown
Doppler factor
Unknown
Orbital elements
Apogee altitude
647.013 km
Perigee altitude
618.778 km
Semi-major axis
7,011.032 km
Eccentricity
0.00201
Inclination
98.9016°
RAAN
17.9374°
Arg. of periapsis
350.6588°
True anomaly
9.46218°
Mean anomaly
9.4243°
Eccentric anomaly
9.44323°
Mean motion
3.69718 °/min
Orbital period
97.37 mins
BSTAR
0.0022315
Loading maneuver chart data...
Computing Atmospheric mass density...
Loading historical data...
Loading historical data...
Loading historical data...
Loading historical data...
Loading historical data...
Loading historical data...
Loading historical data...

Documentation

Showing up to 5 results
|